This demonstration page uses our WeatherBlox Daily Observations layout. Learn more.

Hourly Observations for December 13, 2018

Temp ( °F °C ) Dew Point ( °F °C ) Humidity (%) Winds ( mph kmh ) Pressure ( in mb ) Visibility ( mi km ) Precip ( " mm )
12:15 am 00:15 Cloudy 37 3 30 -1 75 75 SSE 7 11 30.18 1022 10 16.09344 0 0
12:35 am 00:35 Cloudy 37 3 30 -1 75 75 S 6 9 30.18 1022 10 16.09344 0 0
12:55 am 00:55 Cloudy 37 3 30 -1 75 75 S 3 6 30.18 1022 10 16.09344 0 0
1:15 am 01:15 Cloudy 37 3 30 -1 75 75 S 5 7 30.18 1022 10 16.09344 0 0
1:35 am 01:35 Cloudy 37 3 30 -1 75 75 S 5 7 30.21 1023 10 16.09344 0 0
1:55 am 01:55 Cloudy 37 3 30 -1 75 75 SSE 5 7 30.21 1023 10 16.09344 0 0
2:15 am 02:15 Cloudy 37 3 30 -1 75 75 Calm 30.21 1023 10 16.09344 0 0
2:35 am 02:35 Cloudy 37 3 30 -1 75 75 Calm 30.21 1023 10 16.09344 0 0
2:55 am 02:55 Cloudy 37 3 30 -1 75 75 Calm 30.21 1023 10 16.09344 0 0
3:15 am 03:15 Cloudy 37 3 30 -1 75 75 S 5 7 30.21 1023 10 16.09344 0 0
3:35 am 03:35 Mostly Cloudy 36 2 30 -1 81 81 Calm 30.21 1023 10 16.09344 0 0
3:55 am 03:55 Cloudy 36 2 30 -1 81 81 Calm 30.21 1023 10 16.09344 0 0
4:15 am 04:15 Cloudy 37 3 30 -1 75 75 Calm 30.24 1024 10 16.09344 0 0
4:35 am 04:35 Cloudy 37 3 30 -1 75 75 Calm 30.24 1024 10 16.09344 0 0
4:55 am 04:55 Cloudy 36 2 32 0 87 87 Calm 30.24 1024 10 16.09344 0 0
5:15 am 05:15 Mostly Cloudy 36 2 32 0 87 87 Calm 30.24 1024 10 16.09344 0 0
5:35 am 05:35 Cloudy 36 2 32 0 87 87 Calm 30.24 1024 10 16.09344 0 0
5:55 am 05:55 Cloudy 34 1 32 0 93 93 Calm 30.24 1024 10 16.09344 0 0
6:15 am 06:15 Mostly Cloudy 36 2 32 0 87 87 Calm 30.24 1024 10 16.09344 0 0
6:35 am 06:35 Clear 32 0 30 -1 93 93 NW 3 6 30.27 1025 10 16.09344 0 0
6:55 am 06:55 Clear 34 1 32 0 93 93 Calm 30.27 1025 10 16.09344 0 0
7:15 am 07:15 Clear 32 0 30 -1 93 93 Calm 30.27 1025 10 16.09344 0 0
7:35 am 07:35 Sunny 32 0 30 -1 93 93 Calm 30.3 1026 10 16.09344 0 0
7:55 am 07:55 Sunny 32 0 32 0 100 100 NNW 6 9 30.3 1026 10 16.09344 0 0
8:15 am 08:15 Sunny 34 1 32 0 93 93 NNE 3 6 30.3 1026 10 16.09344 0 0
8:35 am 08:35 Sunny 36 2 32 0 87 87 Calm 30.3 1026 10 16.09344 0 0
8:55 am 08:55 Sunny 37 3 32 0 81 81 Calm 30.3 1026 10 16.09344 0 0
9:15 am 09:15 Sunny 37 3 32 0 81 81 NNE 3 6 30.33 1027 10 16.09344 0 0
9:35 am 09:35 Sunny 39 4 32 0 75 75 NNE 3 6 30.33 1027 10 16.09344 0 0
9:55 am 09:55 Sunny 41 5 32 0 70 70 NE 3 6 30.33 1027 10 16.09344 0 0
10:15 am 10:15 Sunny 41 5 32 0 70 70 Calm 30.33 1027 10 16.09344 0 0
10:35 am 10:35 Partly Cloudy 43 6 32 0 66 66 Calm 30.33 1027 10 16.09344 0 0
10:55 am 10:55 Partly Cloudy 43 6 32 0 66 66 Calm 30.33 1027 10 16.09344 0 0
11:15 am 11:15 Mostly Cloudy 43 6 32 0 66 66 ENE 3 6 30.33 1027 10 16.09344 0 0
11:35 am 11:35 Cloudy 45 7 32 0 61 61 Calm 30.33 1027 10 16.09344 0 0
11:55 am 11:55 Cloudy 45 7 32 0 61 61 Calm 30.33 1027 10 16.09344 0 0
12:15 pm 12:15 Cloudy 45 7 32 0 61 61 ESE 3 6 30.33 1027 10 16.09344 0 0
12:35 pm 12:35 Partly Cloudy 46 8 32 0 57 57 NE 3 6 30.33 1027 10 16.09344 0 0
12:55 pm 12:55 Sunny 46 8 34 1 62 62 Calm 30.33 1027 10 16.09344 0 0
1:15 pm 13:15 Sunny 48 9 34 1 58 58 ENE 3 6 30.33 1027 10 16.09344 0 0
1:35 pm 13:35 Sunny 48 9 34 1 58 58 ENE 3 6 30.33 1027 10 16.09344 0 0
1:55 pm 13:55 Sunny 50 10 34 1 54 54 Calm 30.33 1027 10 16.09344 0 0
2:15 pm 14:15 Sunny 50 10 34 1 54 54 E 3 6 30.33 1027 10 16.09344 0 0
2:35 pm 14:35 Sunny 50 10 34 1 54 54 NE 3 6 30.33 1027 10 16.09344 0 0
3:15 pm 15:15 Sunny 50 10 34 1 54 54 NNE 5 7 30.33 1027 10 16.09344 0 0
3:55 pm 15:55 Sunny 48 9 36 2 62 62 Calm 30.33 1027 10 16.09344 0 0
4:15 pm 16:15 Sunny 48 9 36 2 62 62 Calm 30.36 1028 10 16.09344 0 0
4:35 pm 16:35 Mostly Cloudy 46 8 36 2 66 66 NNE 3 6 30.36 1028 10 16.09344 0 0
4:55 pm 16:55 Cloudy 46 8 36 2 66 66 NNE 5 7 30.36 1028 10 16.09344 0 0
5:15 pm 17:15 Cloudy 46 8 34 1 62 62 NNE 3 6 30.36 1028 10 16.09344 0 0
5:35 pm 17:35 Cloudy 45 7 36 2 71 71 Calm 30.36 1028 10 16.09344 0 0
5:55 pm 17:55 Cloudy 45 7 36 2 71 71 Calm 30.39 1029 10 16.09344 0 0
6:15 pm 18:15 Cloudy 45 7 36 2 71 71 Calm 30.39 1029 10 16.09344 0 0
6:35 pm 18:35 Cloudy 45 7 36 2 71 71 Calm 30.39 1029 10 16.09344 0 0
6:55 pm 18:55 Cloudy 45 7 36 2 71 71 Calm 30.39 1029 10 16.09344 0 0
7:15 pm 19:15 Cloudy 45 7 36 2 71 71 Calm 30.39 1029 10 16.09344 0 0
7:35 pm 19:35 Cloudy 43 6 36 2 76 76 Calm 30.39 1029 10 16.09344 0 0
7:55 pm 19:55 Cloudy 43 6 36 2 76 76 NNE 3 6 30.39 1029 10 16.09344 0 0
8:15 pm 20:15 Cloudy 43 6 36 2 76 76 Calm 30.42 1030 10 16.09344 0 0
8:35 pm 20:35 Cloudy 43 6 36 2 76 76 Calm 30.42 1030 10 16.09344 0 0
8:55 pm 20:55 Cloudy 43 6 36 2 76 76 NNE 3 6 30.42 1030 10 16.09344 0 0
9:15 pm 21:15 Cloudy 43 6 36 2 76 76 Calm 30.42 1030 10 16.09344 0 0
9:35 pm 21:35 Cloudy 43 6 36 2 76 76 Calm 30.42 1030 10 16.09344 0 0
9:55 pm 21:55 Cloudy 41 5 36 2 81 81 Calm 30.42 1030 10 16.09344 0 0
10:15 pm 22:15 Cloudy 41 5 36 2 81 81 Calm 30.42 1030 10 16.09344 0 0
10:35 pm 22:35 Cloudy 41 5 36 2 81 81 Calm 30.42 1030 10 16.09344 0 0
10:55 pm 22:55 Cloudy 41 5 36 2 81 81 NNE 3 6 30.42 1030 10 16.09344 0 0
11:15 pm 23:15 Cloudy 39 4 36 2 87 87 Calm 30.42 1030 10 16.09344 0 0
11:35 pm 23:35 Mostly Cloudy 39 4 36 2 87 87 Calm 30.42 1030 10 16.09344 0 0
11:55 pm 23:55 Partly Cloudy 39 4 36 2 87 87 Calm 30.42 1030 10 16.09344 0 0

Powered by AerisWeather